Back to catalog

FENGYUN 1C DEB

AliveSSO
NORAD 29827·DEBRIS·🇨🇳 China

Launched May 10, 1999 from Taiyuan Satellite Launch Center

Loading…

Next Passes (next 24 hours)

TLE

FreshSource: Space-Track

Epoch: Sep 14, 2026, 11:28 UTC

1 29827U 99025DV  26257.47784880  .00000349  00000-0  17694-3 0  9997
2 29827  98.6230 247.1776 0024301 240.2445 271.8557 14.22033830 17710

Track FENGYUN 1C DEB in real time with AllMySat

Download on the App Store